Temp
17 16 17 17 17 17 17 16 17 17 16 16 17 15 14 14 13 12 12 10 10 9
16 16 16 16 17 18 17 16 16 17 17 16 14 14 14 13 12 11 10 10 9 9
17 17 17 16 17 17 17 16 16 17 16 14 13 14 13 12 11 10 9 9 8 8
17 17 17 16 16 16 14 14 15 15 13 13 12 13 12 11 10 9 8 7 7 6
17 16 15 14 15 14 14 14 13 13 13 12 12 11 11 10 9 8 7 6 6 6
17 14 15 14 15 15 15 15 12 12 12 11 11 10 9 9 8 7 6 6 5 5
15 14 14 14 14 14 13 11 11 11 11 10 10 9 8 7 7 6 6 5 5 5
12 13 12 12 12 12 11 11 11 11 9 8 8 7 6 6 6 5 4 4 4 4
11 10 11 11 11 11 10 10 9 8 7 6 6 6 6 5 5 4 4 4 4 3
10 10 9 9 9 8 8 7 7 6 6 5 5 5 5 4 4 4 3 3 3 2
8 7 7 7 7 6 6 6 5 5 5 5 5 4 4 4 3 2 2 1 1 1
6 6 5 5 5 5 5 5 5 5 4 4 4 3 3 3 2 2 1 0 -0 -0
6 5 5 5 5 5 5 5 4 4 4 4 3 3 3 2 1 1 -0 -1 -2 -2
6 6 7 5 4 4 4 4 4 3 2 2 2 1 1 0 -0 -1 -2 -2 -3 -4
Height
785 788 789 791 791 791 793 795 796 800 803 806 811 814 818 820 822 825 826 829 831 833
777 780 780 782 785 786 788 790 795 799 802 802 804 806 811 814 817 819 822 825 828 830
770 771 773 777 778 781 783 785 790 793 797 801 801 801 806 809 812 816 818 821 824 826
761 763 765 769 773 779 783 788 786 789 794 796 797 797 801 805 808 811 815 818 821 824
761 765 768 768 769 775 773 776 779 785 787 789 791 795 796 802 804 808 811 815 819 822
750 756 760 747 750 764 766 767 774 779 781 783 787 791 795 799 801 805 810 814 817 820
741 747 749 751 755 757 760 765 769 773 775 779 784 789 793 797 799 805 808 812 814 817
738 738 743 745 747 753 758 761 766 770 776 780 783 788 790 793 799 803 808 810 812 814
734 740 741 743 747 753 758 762 766 770 775 778 781 785 790 794 799 803 805 808 810 812
735 738 742 744 748 754 758 763 767 771 774 778 780 786 791 796 799 801 803 805 806 807
736 740 744 747 749 754 759 763 767 771 775 778 783 788 792 795 797 799 801 802 803 803
737 740 744 747 751 754 758 762 766 771 776 780 784 788 790 792 795 797 799 800 800 800
738 742 746 749 752 756 759 763 767 772 776 780 782 786 788 791 793 795 796 797 798 798
741 744 747 751 754 758 762 766 771 775 778 780 783 786 789 791 792 793 794 794 795 795
Wind_Speed
41 39 43 41 41 41 40 41 42 43 43 39 34 28 28 27 29 28 25 23 25 23
41 41 38 44 43 46 42 41 37 39 40 41 32 29 27 27 27 24 22 22 23 21
40 44 45 35 42 41 39 35 36 34 34 33 31 28 26 26 25 23 23 24 23 22
39 42 43 39 31 30 21 23 20 33 38 34 30 28 28 27 25 24 24 23 22 19
21 29 30 30 27 24 22 15 34 38 37 32 29 30 29 28 25 25 24 22 18 15
31 28 24 31 31 32 30 31 30 34 33 30 28 28 27 25 24 23 20 17 15 12
26 32 33 39 35 31 29 31 33 30 25 23 25 25 24 22 20 20 16 14 11 8
19 17 20 22 25 26 27 28 26 24 24 22 21 22 21 21 20 18 15 10 7 6
22 24 24 26 26 25 24 23 23 22 22 22 22 21 20 19 19 16 11 7 5 4
25 24 24 25 25 23 23 22 22 22 22 21 19 18 18 17 14 11 7 6 5 4
27 27 26 25 24 24 25 25 25 23 20 20 20 18 16 14 12 10 8 6 3 4
26 26 25 26 27 28 27 25 24 24 23 21 17 17 15 14 13 11 7 3 3 6
25 24 25 27 25 25 26 27 26 23 18 17 16 19 16 14 12 8 3 2 4 6
23 23 22 24 27 27 25 23 20 20 20 20 19 17 13 9 6 3 1 3 5 7
Wind_Direction
223 224 230 229 228 230 226 228 231 229 229 233 240 232 232 232 230 236 243 241 233 222
224 225 227 229 230 229 230 230 229 234 235 235 226 226 229 227 227 234 235 230 221 217
222 228 229 227 230 231 231 231 228 227 238 235 224 220 223 223 228 227 225 212 212 212
226 228 233 226 226 222 223 224 222 234 243 231 217 216 219 223 217 215 209 209 211 210
240 236 226 215 215 212 225 225 250 232 224 214 217 215 212 215 210 205 203 201 199 211
232 218 215 204 211 214 221 222 231 223 211 212 209 208 209 210 203 203 199 196 207 213
208 206 211 219 208 209 213 218 218 206 198 200 202 205 203 198 191 187 188 191 197 219
204 216 212 195 189 199 204 194 192 193 195 193 192 191 183 177 180 179 175 183 196 234
172 173 166 165 168 174 178 183 182 179 177 171 172 171 175 175 169 168 178 186 216 233
163 164 164 164 164 166 167 168 168 166 165 164 159 161 159 164 169 174 185 188 205 196
165 165 168 165 163 164 166 166 163 157 156 151 152 159 166 173 170 162 163 171 201 262
161 155 155 157 161 164 161 155 152 151 151 156 165 171 170 170 169 170 170 201 284 298
157 154 156 161 161 159 156 151 152 156 164 164 162 177 180 176 176 175 181 299 333 339
161 163 161 162 159 157 157 156 157 158 158 153 156 151 160 164 170 157 33 350 339 339